Location: *
(58.7167°N, 26.1833°E)
Time: 04:05:56
(UTC+00:00)

NOSS 3-4 (C) - Pass Details

Date: 25 August 2019
Orbit: 912 x 1301 km, 63.4° (Epoch: 16 September)

Event Time Altitude Azimuth Distance (km) Brightness Sun altitude
Rises 21:06:15 0° 295° (WNW) 3,695 7.2 -19.2°
Reaches altitude 10° 21:08:45 10° 297° (WNW) 2,790 6.5 -19.3°
Maximum altitude 21:15:21 74° 23° (NNE) 1,122 3.9 -19.5°
Drops below altitude 10° 21:22:39 10° 109° (ESE) 3,065 5.8 -19.8°
Enters shadow 21:23:13 - 110° (ESE) 3,270 5.9 -19.8°
